Location: ????????
(60.5616°N, 46.8254°E)
Time: 09:24:52
(UTC+00:00)

Cosmos 1844 Rocket - Pass Details

Date: 18 February 2020
Orbit: 823 x 846 km, 71.0° (Epoch: 27 March)

Event Time Altitude Azimuth Distance (km) Brightness Sun altitude
Rises 17:55:33 0° 292° (WNW) 3,390 7.0 -29.9°
Reaches altitude 10° 17:58:19 10° 304° (WNW) 2,460 6.0 -30.2°
Maximum altitude 18:03:12 29° 4° (N) 1,506 4.2 -30.7°
Enters shadow 18:04:13 27° 22° (NNE) 1,561 4.1 -30.8°
